Other Surface Observations
Issued by NWS

Home | Current Version | Previous Version | Text Only | Print | Product List | Glossary On
Versions: 1 2 3 4 5 6 7 8 9 10 11 12 13 14 15 16 17 18 19 20 21 22 23 24 25 26 27 28 29 30 31 32 33 34 35 36 37 38 39 40 41 42 43 44 45 46 47 48 49 50
988
SXUS52 KTAE 281518
OSOTAE
OSOTAE
North Florida/South Alabama/Southwest Georgia Weather Roundup
National Weather Service Tallahassee Florida
1100 AM EDT WED SEP 28 2016

Note: "fair" indicates few or no clouds below 12,000 feet with no
significant weather and/or obstructions to visibility.

!FLZ017-115-028-034-025-281600
...North Florida...

CITY           SKY/WX    TMP DP  RH WIND       PRES   REMARKS
TALLAHASSEE    PTSUNNY   85  73  67 W5        29.99R HX  91
APALACHICOLA   LGT RAIN  79  78  97 W8        29.98S FOG
PERRY          CLOUDY    82  74  77 S5        30.01R
CROSS CITY     CLOUDY    82  73  74 CALM      30.01R
JACKSONVILLE   PTSUNNY   84  71  65 SW8       29.99R
$$

!FLZ112-006-005-002-011-281600
...Florida Panhandle...

CITY           SKY/WX    TMP DP  RH WIND       PRES   REMARKS
MARIANNA       CLOUDY    82  75  79 CALM      29.98R
BONIFAY        FAIR      81  72  74 CALM      29.99R
PANAMA CITY NW FAIR      82  74  76 S3        29.98R
TYNDALL AFB    MOSUNNY   82  74  78 CALM      29.98S
TYND DRONE APT PTSUNNY   79  77  93 SE6       29.98S
DE FUNIAK SPR  FAIR      80  72  76 CALM      30.00R
EGLIN AFB      MOSUNNY   83  72  68 NE1       29.98R
DESTIN         MOSUNNY   86  74  67 VRB3      29.98R HX  94
HURLBURT       MOSUNNY   84  70  61 S5        29.98R
CRESTVIEW      SUNNY     83  71  67 SE3       30.00R
PENSACOLA      SUNNY     82  72  71 SE3       29.99R
$$

!ALZ063-066-281600
...South Alabama...

CITY           SKY/WX    TMP DP  RH WIND       PRES   REMARKS
DOTHAN         SUNNY     83  70  64 CALM      30.02R
OZARK CAIRNS   SUNNY     80  71  73 CALM      29.98R
FT RUCKER HELI SUNNY     83  70  64 SW3       29.97R
RUCKER HELI 3  NOT AVBL
RUCKER HELI 2  NOT AVBL
FLORALA APT    NOT AVBL
ANDALUSIA      SUNNY     87  69  54 CALM      29.99R HX  91
TROY           SUNNY     80  65  59 CALM      30.00R
EUFALA         NOT AVBL
MOBILE         MOSUNNY   81  60  48 N6        30.01R
$$

!GAZ120>161-281600
...Southwest and South Central Georgia...

CITY           SKY/WX    TMP DP  RH WIND       PRES   REMARKS
THOMASVILLE    FAIR      82  75  78 W3        30.01R
BAINBRIDGE     CLOUDY    81  73  78 CALM      29.99R
MOODY AFB      MOSUNNY   84  72  67 W7        29.98R HX  90
VALDOSTA       MOSUNNY   83  74  74 CALM      30.00R
MOULTRIE       MOSUNNY   82  72  69 SW7       30.00S
BLAKELY        SUNNY     84  70  61 CALM      29.99R
ALBANY         SUNNY     80  70  71 S5        30.00R
TIFTON         FAIR      81  71  71 W5        29.98S
FITZGERALD     FAIR      87  75  67 W5        30.00R HX  96
CORDELE        FAIR      85  71  63 W7        29.98S HX  91
AMERICUS       FAIR      82  63  51 W3        30.00R
HOMERVILLE     FAIR      84  73  70 W7        30.00R HX  91
$$

!GMZ750-755-770-775-281600
...Coastal and Buoy Obs...

STATION/POSITION TIME  TEMP    WIND        PRES    VSBY  WAVE
                       AIR SEA DIR/SP/G                  HT/PER
                 (UTC) (F)     (DEG/KT/KT) (MB)    (MI)  (FT/S)
KEATON BEACH     1500   79      40/  2/  3 1015.7R
CEDAR KEY        1500   84     250/  4/  7 1016.5R
C TOWER          1500   83     230/ 11/ 12 1016.2R
APALACHICOLA BUO 1450   84 85  230/  8/ 10 1015.8R         1/ 3
PANAMA CITY BUOY 1450   83 85              1015.7R         1/ 3
MOBILE BUOY      1500   82 85  300/  6/  8 1015.5R
ORANGE BCH AL BU 1450   80 86   30/  4/  4 1015.7R         1
$$




USA.gov is the U.S. government's official web portal to all federal, state and local government web resources and services.